| time (UTC) | temp F | wind direction | speed MPH | gust MPH | rain 1hr in | rain 24hr in | rain mn in | humidity % | barometer mb |
| 20260831110003 | 67 | 0 | 0.0 | 0.0 | 0.00 | 0.37 | 0.01 | 39 | 1005.3 |
| 20260831105502 | 67 | 248 | 0.0 | 1.0 | 0.00 | 0.37 | 0.01 | 41 | 1005.3 |
| 20260831105002 | 67 | 248 | 0.0 | 1.0 | 0.00 | 0.37 | 0.01 | 45 | 1005.4 |
| 20260831104503 | 67 | 318 | 0.0 | 1.0 | 0.00 | 0.37 | 0.01 | 42 | 1005.4 |
| 20260831104002 | 67 | 318 | 0.0 | 1.0 | 0.00 | 0.37 | 0.01 | 46 | 1005.5 |
| 20260831103502 | 67 | 235 | 0.0 | 1.0 | 0.00 | 0.37 | 0.01 | 47 | 1005.5 |
| 20260831103003 | 67 | 239 | 0.0 | 1.0 | 0.00 | 0.37 | 0.01 | 49 | 1005.4 |
| 20260831102524 | 67 | 250 | 0.0 | 1.0 | 0.00 | 0.37 | 0.01 | 53 | 1005.5 |
| 20260831102003 | 67 | 253 | 0.0 | 1.0 | 0.00 | 0.37 | 0.01 | 47 | 1005.4 |
| 20260831101503 | 66 | 259 | 0.0 | 1.0 | 0.00 | 0.37 | 0.01 | 50 | 1005.5 |
| 20260831101003 | 65 | 265 | 0.0 | 1.0 | 0.00 | 0.37 | 0.01 | 23 | 1005.4 |
| 20260831100503 | 65 | 259 | 0.0 | 1.0 | 0.00 | 0.37 | 0.01 | 29 | 1005.6 |
| 20260831100003 | 65 | 249 | 0.0 | 1.0 | 0.00 | 0.37 | 0.01 | 32 | 1005.6 |
| 20260831095502 | 65 | 244 | 0.0 | 1.0 | 0.00 | 0.37 | 0.01 | 35 | 1005.5 |
| 20260831095002 | 65 | 254 | 0.0 | 1.0 | 0.00 | 0.37 | 0.01 | 34 | 1005.5 |
| 20260831094524 | 64 | 273 | 0.0 | 1.0 | 0.00 | 0.37 | 0.01 | 25 | 1005.4 |
| 20260831094003 | 65 | 236 | 0.0 | 1.0 | 0.00 | 0.37 | 0.01 | 32 | 1005.4 |
| 20260831093503 | 65 | 236 | 0.0 | 1.0 | 0.00 | 0.37 | 0.01 | 35 | 1005.4 |
| 20260831093003 | 65 | 0 | 0.0 | 0.0 | 0.00 | 0.37 | 0.01 | 38 | 1005.5 |
| 20260831092503 | 65 | 0 | 0.0 | 0.0 | 0.00 | 0.37 | 0.01 | 41 | 1005.4 |
| 20260831092003 | 66 | 256 | 0.0 | 1.0 | 0.00 | 0.37 | 0.01 | 39 | 1005.5 |
| 20260831091503 | 66 | 279 | 0.0 | 2.0 | 0.00 | 0.37 | 0.01 | 35 | 1005.5 |
| 20260831091003 | 65 | 283 | 0.0 | 2.0 | 0.00 | 0.37 | 0.01 | 39 | 1005.5 |
| 20260831090503 | 65 | 255 | 0.0 | 2.0 | 0.00 | 0.37 | 0.01 | 37 | 1005.4 |
| 20260831090003 | 65 | 254 | 0.0 | 2.0 | 0.00 | 0.37 | 0.01 | 41 | 1005.4 |
| 20260831085503 | 66 | 0 | 0.0 | 0.0 | 0.00 | 0.37 | 0.01 | 36 | 1005.4 |
| 20260831085003 | 66 | 251 | 0.0 | 1.0 | 0.00 | 0.37 | 0.01 | 38 | 1005.3 |
| 20260831084503 | 66 | 251 | 0.0 | 1.0 | 0.00 | 0.37 | 0.01 | 31 | 1005.2 |
| 20260831084002 | 65 | 283 | 0.0 | 1.0 | 0.00 | 0.37 | 0.01 | 26 | 1005.2 |
| 20260831083503 | 65 | 283 | 0.0 | 1.0 | 0.00 | 0.37 | 0.01 | 26 | 1005.2 |
| 20260831083003 | 65 | 276 | 0.0 | 1.0 | 0.00 | 0.37 | 0.01 | 26 | 1005.3 |
| 20260831082503 | 65 | 277 | 0.0 | 1.0 | 0.00 | 0.38 | 0.01 | 29 | 1005.2 |
| 20260831082003 | 64 | 278 | 0.0 | 1.0 | 0.00 | 0.38 | 0.01 | 20 | 1005.2 |
| 20260831081503 | 64 | 0 | 0.0 | 1.0 | 0.00 | 0.39 | 0.01 | 9 | 1005.2 |
| 20260831081003 | 63 | 0 | 0.0 | 1.0 | 0.00 | 0.39 | 0.01 | 15 | 1005.3 |
| 20260831080503 | 63 | 256 | 0.0 | 1.0 | 0.00 | 0.39 | 0.01 | 9 | 1005.3 |
| 20260831080004 | 63 | 279 | 0.0 | 2.0 | 0.00 | 0.39 | 0.01 | 12 | 1005.4 |
| 20260831075524 | 63 | 279 | 0.0 | 2.0 | 0.00 | 0.39 | 0.01 | 12 | 1005.4 |
| 20260831075002 | 63 | 286 | 0.0 | 2.0 | 0.00 | 0.39 | 0.01 | 13 | 1005.3 |
| 20260831074502 | 63 | 297 | 0.0 | 2.0 | 0.00 | 0.39 | 0.01 | 18 | 1005.4 |
| 20260831074003 | 63 | 284 | 0.0 | 2.0 | 0.00 | 0.39 | 0.01 | 13 | 1005.4 |
| 20260831073503 | 63 | 273 | 0.0 | 2.0 | 0.00 | 0.39 | 0.01 | 10 | 1005.3 |
| 20260831073003 | 62 | 261 | 0.0 | 2.0 | 0.00 | 0.39 | 0.01 | 9 | 1005.4 |
| 20260831072524 | 62 | 253 | 0.0 | 2.0 | 0.00 | 0.39 | 0.01 | 13 | 1005.3 |
| 20260831072003 | 62 | 256 | 0.0 | 1.0 | 0.00 | 0.39 | 0.01 | 8 | 1005.3 |
| 20260831071503 | 62 | 300 | 0.0 | 3.0 | 0.00 | 0.39 | 0.01 | 13 | 1005.3 |
| 20260831071024 | 62 | 308 | 0.0 | 3.0 | 0.00 | 0.39 | 0.01 | 10 | 1005.4 |
| 20260831070503 | 62 | 305 | 0.0 | 2.0 | 0.00 | 0.42 | 0.01 | 4 | 1005.3 |
| 20260831070024 | 61 | 293 | 0.0 | 5.0 | 0.00 | 0.43 | 0.01 | 1 | 1005.3 |
| 20260831065503 | 61 | 288 | 0.0 | 5.0 | 0.00 | 0.43 | 0.01 | 1 | 1005.3 |
| 20260831065003 | 60 | 287 | 0.0 | 2.0 | 0.00 | 0.43 | 0.01 | 1 | 1005.4 |
| 20260831064503 | 60 | 282 | 0.0 | 2.0 | 0.00 | 0.43 | 0.01 | 1 | 1005.4 |
| 20260831064002 | 60 | 200 | 0.0 | 2.0 | 0.00 | 0.43 | 0.01 | 1 | 1005.4 |
| 20260831063503 | 59 | 156 | 0.0 | 2.0 | 0.00 | 0.43 | 0.01 | 1 | 1005.4 |
| 20260831063003 | 59 | 277 | 0.0 | 1.0 | 0.00 | 0.43 | 0.01 | 1 | 1005.4 |
| 20260831062502 | 59 | 279 | 0.0 | 1.0 | 0.00 | 0.43 | 0.01 | 1 | 1005.4 |
| 20260831062003 | 58 | 134 | 0.0 | 1.0 | 0.00 | 0.43 | 0.01 | 1 | 1005.4 |
| 20260831061524 | 58 | 127 | 0.0 | 2.0 | 0.00 | 0.43 | 0.01 | 1 | 1005.3 |
| 20260831061003 | 58 | 127 | 0.0 | 2.0 | 0.00 | 0.43 | 0.01 | 1 | 1005.3 |
| 20260831060503 | 58 | 277 | 0.0 | 1.0 | 0.00 | 0.43 | 0.01 | 1 | 1005.3 |
| 20260831060004 | 58 | 275 | 0.0 | 2.0 | 0.00 | 0.43 | 0.01 | 1 | 1005.3 |
| 20260831055503 | 58 | 273 | 0.0 | 2.0 | 0.00 | 0.43 | 0.01 | 1 | 1005.3 |
| 20260831055002 | 57 | 0 | 0.0 | 0.0 | 0.00 | 0.43 | 0.01 | 1 | 1005.3 |
| 20260831054502 | 57 | 0 | 0.0 | 0.0 | 0.00 | 0.43 | 0.01 | 1 | 1005.3 |
| 20260831054003 | 57 | 0 | 0.0 | 0.0 | 0.00 | 0.46 | 0.01 | 1 | 1005.3 |
| 20260831053524 | 56 | 0 | 0.0 | 0.0 | 0.00 | 0.47 | 0.01 | 1 | 1005.3 |
| 20260831053003 | 56 | 0 | 0.0 | 0.0 | 0.00 | 0.47 | 0.01 | 1 | 1005.3 |
| 20260831052503 | 56 | 0 | 0.0 | 0.0 | 0.00 | 0.47 | 0.01 | 1 | 1005.3 |
| 20260831052003 | 57 | 0 | 0.0 | 1.0 | 0.00 | 0.47 | 0.01 | 1 | 1005.2 |
| 20260831051503 | 57 | 0 | 0.0 | 1.0 | 0.00 | 0.47 | 0.01 | 1 | 1005.2 |
| 20260831051003 | 57 | 0 | 0.0 | 1.0 | 0.00 | 0.47 | 0.01 | 1 | 1005.1 |
| 20260831050503 | 57 | 0 | 0.0 | 1.0 | 0.00 | 0.47 | 0.01 | 1 | 1005.1 |
| 20260831050003 | 57 | 0 | 0.0 | 1.0 | 0.00 | 0.47 | 0.01 | 1 | 1005.0 |
| 20260831045503 | 57 | 0 | 0.0 | 1.0 | 0.00 | 0.47 | 0.01 | 1 | 1005.0 |
| 20260831045023 | 57 | 0 | 0.0 | 1.0 | 0.00 | 0.47 | 0.01 | 1 | 1005.1 |
| 20260831044503 | 57 | 0 | 0.0 | 1.0 | 0.00 | 0.47 | 0.01 | 1 | 1005.1 |
| 20260831044003 | 57 | 0 | 0.0 | 1.0 | 0.00 | 0.47 | 0.01 | 1 | 1005.1 |
| 20260831043503 | 57 | 0 | 0.0 | 1.0 | 0.00 | 0.47 | 0.01 | 1 | 1005.1 |
| 20260831043003 | 57 | 134 | 0.0 | 1.0 | 0.00 | 0.47 | 0.01 | 1 | 1005.1 |
| 20260831042503 | 56 | 134 | 0.0 | 1.0 | 0.00 | 0.47 | 0.01 | 1 | 1005.1 |
| 20260831042003 | 57 | 263 | 0.0 | 1.0 | 0.00 | 0.47 | 0.01 | 1 | 1005.1 |
| 20260831041503 | 57 | 263 | 0.0 | 1.0 | 0.00 | 0.47 | 0.01 | 1 | 1005.0 |
| 20260831041003 | 57 | 0 | 0.0 | 0.0 | 0.00 | 0.47 | 0.01 | 1 | 1005.0 |
| 20260831040503 | 57 | 0 | 0.0 | 0.0 | 0.00 | 0.47 | 0.01 | 1 | 1004.9 |
| 20260831040003 | 57 | 0 | 0.0 | 0.0 | 0.00 | 0.47 | 0.01 | 1 | 1005.0 |
| 20260831035503 | 57 | 0 | 0.0 | 0.0 | 0.00 | 0.47 | 0.01 | 1 | 1005.0 |
| 20260831035023 | 57 | 0 | 0.0 | 0.0 | 0.00 | 0.47 | 0.01 | 1 | 1004.9 |
| 20260831034503 | 57 | 0 | 0.0 | 0.0 | 0.00 | 0.47 | 0.01 | 1 | 1004.9 |
| 20260831034002 | 57 | 0 | 0.0 | 0.0 | 0.00 | 0.47 | 0.01 | 1 | 1005.0 |
| 20260831033503 | 57 | 0 | 0.0 | 0.0 | 0.00 | 0.47 | 0.01 | 1 | 1005.0 |
| 20260831033003 | 57 | 0 | 0.0 | 0.0 | 0.00 | 0.47 | 0.01 | 1 | 1005.0 |
| 20260831032502 | 57 | 0 | 0.0 | 0.0 | 0.00 | 0.47 | 0.01 | 1 | 1005.0 |
| 20260831032003 | 57 | 0 | 0.0 | 0.0 | 0.00 | 0.47 | 0.01 | 1 | 1005.0 |
| 20260831031503 | 57 | 0 | 0.0 | 0.0 | 0.00 | 0.47 | 0.01 | 1 | 1005.0 |
| 20260831031003 | 57 | 25 | 0.0 | 1.0 | 0.00 | 0.47 | 0.01 | 1 | 1004.9 |
| 20260831030503 | 57 | 25 | 0.0 | 1.0 | 0.00 | 0.47 | 0.01 | 1 | 1004.9 |
| 20260831030003 | 57 | 0 | 0.0 | 1.0 | 0.00 | 0.47 | 0.01 | 1 | 1004.9 |
| 20260831025503 | 57 | 0 | 0.0 | 0.0 | 0.00 | 0.47 | 0.01 | 1 | 1004.9 |
| 20260831025003 | 57 | 269 | 0.0 | 1.0 | 0.00 | 0.47 | 0.01 | 1 | 1004.9 |
| 20260831024524 | 57 | 269 | 0.0 | 1.0 | 0.00 | 0.47 | 0.01 | 1 | 1004.9 |
| 20260831024003 | 57 | 0 | 0.0 | 0.0 | 0.00 | 0.47 | 0.01 | 1 | 1004.9 |
| 20260831023503 | 57 | 0 | 0.0 | 0.0 | 0.00 | 0.47 | 0.01 | 1 | 1004.9 |
| 20260831023003 | 57 | 0 | 0.0 | 0.0 | 0.01 | 0.47 | 0.01 | 1 | 1004.9 |
| 20260831022502 | 57 | 0 | 0.0 | 0.0 | 0.01 | 0.47 | 0.01 | 1 | 1004.8 |
| 20260831022003 | 57 | 283 | 0.0 | 1.0 | 0.01 | 0.47 | 0.01 | 1 | 1004.8 |
| 20260831021503 | 57 | 283 | 0.0 | 1.0 | 0.01 | 0.47 | 0.01 | 1 | 1004.9 |
| 20260831021003 | 57 | 0 | 0.0 | 0.0 | 0.01 | 0.47 | 0.01 | 1 | 1004.9 |
| 20260831020503 | 57 | 0 | 0.0 | 0.0 | 0.01 | 0.47 | 0.01 | 1 | 1004.9 |
| 20260831020003 | 57 | 0 | 0.0 | 0.0 | 0.01 | 0.47 | 0.01 | 1 | 1004.8 |
| 20260831015503 | 57 | 0 | 0.0 | 0.0 | 0.01 | 0.47 | 0.01 | 1 | 1004.8 |
| 20260831015003 | 57 | 283 | 0.0 | 1.0 | 0.01 | 0.47 | 0.01 | 1 | 1004.8 |
| 20260831014502 | 57 | 288 | 0.0 | 3.0 | 0.01 | 0.47 | 0.01 | 1 | 1004.9 |
| 20260831014003 | 57 | 277 | 0.0 | 3.0 | 0.01 | 0.47 | 0.01 | 1 | 1004.9 |
| 20260831013503 | 57 | 155 | 0.0 | 1.0 | 0.01 | 0.47 | 0.01 | 1 | 1004.8 |
| 20260831013024 | 57 | 293 | 0.0 | 1.0 | 0.00 | 0.46 | 0.00 | 1 | 1004.9 |
| 20260831012503 | 57 | 293 | 0.0 | 1.0 | 0.00 | 0.46 | 0.00 | 1 | 1004.9 |
| 20260831012003 | 57 | 0 | 0.0 | 1.0 | 0.00 | 0.46 | 0.00 | 1 | 1004.9 |
| 20260831011503 | 57 | 0 | 0.0 | 1.0 | 0.00 | 0.46 | 0.00 | 1 | 1004.9 |
| 20260831011003 | 57 | 339 | 0.0 | 1.0 | 0.00 | 0.46 | 0.00 | 1 | 1004.9 |
| 20260831010503 | 57 | 344 | 0.0 | 1.0 | 0.00 | 0.46 | 0.00 | 1 | 1005.0 |
| 20260831010003 | 57 | 348 | 0.0 | 1.0 | 0.00 | 0.46 | 0.00 | 1 | 1004.9 |
| 20260831005524 | 57 | 348 | 0.0 | 1.0 | 0.00 | 0.46 | 0.00 | 1 | 1005.0 |
| 20260831005003 | 57 | 348 | 0.0 | 1.0 | 0.00 | 0.46 | 0.00 | 1 | 1005.0 |
| 20260831004503 | 57 | 55 | 0.0 | 2.0 | 0.00 | 0.46 | 0.00 | 1 | 1005.0 |
| 20260831004003 | 57 | 74 | 0.0 | 2.0 | 0.00 | 0.46 | 0.00 | 1 | 1004.9 |
| 20260831003502 | 57 | 227 | 0.0 | 1.0 | 0.00 | 0.46 | 0.00 | 1 | 1005.0 |
| 20260831003003 | 57 | 243 | 0.0 | 1.0 | 0.00 | 0.46 | 0.00 | 1 | 1005.0 |
| 20260831002503 | 57 | 243 | 0.0 | 1.0 | 0.00 | 0.46 | 0.00 | 1 | 1005.0 |
| 20260831002003 | 57 | 0 | 0.0 | 0.0 | 0.00 | 0.46 | 0.00 | 1 | 1005.0 |
| 20260831001503 | 57 | 143 | 0.0 | 1.0 | 0.00 | 0.46 | 0.00 | 1 | 1005.1 |
| 20260831001003 | 57 | 142 | 0.0 | 1.0 | 0.00 | 0.46 | 0.00 | 1 | 1005.1 |
| 20260831000503 | 57 | 135 | 0.0 | 1.0 | 0.00 | 0.46 | 0.00 | 1 | 1005.0 |
| 20260831000024 | 57 | 135 | 0.0 | 1.0 | 0.00 | 0.46 | 0.00 | 1 | 1005.0 |
| 20260830235503 | 57 | 135 | 0.0 | 1.0 | 0.00 | 0.46 | 0.00 | 1 | 1005.0 |
| 20260830235003 | 57 | 174 | 0.0 | 1.0 | 0.00 | 0.46 | 0.00 | 1 | 1005.0 |
| 20260830234524 | 57 | 213 | 0.0 | 1.0 | 0.00 | 0.46 | 0.00 | 1 | 1005.0 |
| 20260830234002 | 57 | 0 | 0.0 | 0.0 | 0.00 | 0.46 | 0.00 | 1 | 1005.0 |
| 20260830233503 | 57 | 282 | 0.0 | 1.0 | 0.00 | 0.46 | 0.00 | 1 | 1005.0 |
| 20260830233003 | 57 | 282 | 0.0 | 1.0 | 0.00 | 0.46 | 0.00 | 1 | 1005.0 |
| 20260830232503 | 57 | 345 | 0.0 | 4.0 | 0.00 | 0.46 | 0.00 | 1 | 1005.0 |
| 20260830232003 | 57 | 345 | 0.0 | 4.0 | 0.00 | 0.46 | 0.00 | 1 | 1005.0 |
| 20260830231503 | 57 | 0 | 0.0 | 0.0 | 0.00 | 0.46 | 0.00 | 1 | 1005.0 |
| 20260830231024 | 57 | 0 | 0.0 | 0.0 | 0.00 | 0.46 | 0.00 | 1 | 1004.9 |
| 20260830230503 | 57 | 0 | 0.0 | 0.0 | 0.00 | 0.46 | 0.00 | 1 | 1004.9 |
| 20260830230003 | 58 | 0 | 0.0 | 0.0 | 0.00 | 0.46 | 0.00 | 1 | 1004.9 |
| 20260830225503 | 57 | 0 | 0.0 | 0.0 | 0.00 | 0.46 | 0.00 | 1 | 1004.9 |
| 20260830225003 | 57 | 283 | 0.0 | 1.0 | 0.00 | 0.46 | 0.00 | 1 | 1004.9 |
| 20260830224503 | 57 | 283 | 0.0 | 1.0 | 0.00 | 0.46 | 0.00 | 1 | 1004.8 |
| 20260830224002 | 57 | 0 | 0.0 | 0.0 | 0.00 | 0.46 | 0.00 | 1 | 1004.9 |
| 20260830223502 | 57 | 279 | 0.0 | 2.0 | 0.00 | 0.46 | 0.00 | 1 | 1004.9 |
| 20260830223003 | 57 | 277 | 0.0 | 2.0 | 0.00 | 0.46 | 0.00 | 1 | 1004.9 |
| 20260830222503 | 57 | 137 | 0.0 | 1.0 | 0.00 | 0.46 | 0.00 | 1 | 1004.9 |
| 20260830222003 | 58 | 145 | 0.0 | 1.0 | 0.00 | 0.46 | 0.00 | 1 | 1004.8 |
| 20260830221503 | 58 | 335 | 0.0 | 1.0 | 0.00 | 0.46 | 0.00 | 1 | 1004.8 |
| 20260830221003 | 58 | 348 | 0.0 | 1.0 | 0.00 | 0.46 | 0.00 | 1 | 1004.7 |
| 20260830220503 | 58 | 348 | 0.0 | 1.0 | 0.00 | 0.46 | 0.00 | 1 | 1004.7 |
| 20260830220005 | 58 | 348 | 0.0 | 1.0 | 0.00 | 0.46 | 0.00 | 1 | 1004.7 |
| 20260830215524 | 58 | 0 | 0.0 | 0.0 | 0.00 | 0.46 | 0.46 | 1 | 1004.7 |
| 20260830215003 | 58 | 0 | 0.0 | 0.0 | 0.00 | 0.46 | 0.46 | 1 | 1004.8 |
| 20260830214503 | 58 | 0 | 0.0 | 0.0 | 0.00 | 0.46 | 0.46 | 1 | 1004.7 |
| 20260830214023 | 58 | 0 | 0.0 | 0.0 | 0.00 | 0.46 | 0.46 | 1 | 1004.7 |
| 20260830213503 | 58 | 0 | 0.0 | 0.0 | 0.00 | 0.46 | 0.46 | 1 | 1004.7 |
| 20260830213003 | 58 | 295 | 0.0 | 1.0 | 0.00 | 0.46 | 0.46 | 1 | 1004.7 |
| 20260830212503 | 58 | 296 | 0.0 | 1.0 | 0.00 | 0.46 | 0.46 | 1 | 1004.6 |
| 20260830212003 | 58 | 297 | 0.0 | 1.0 | 0.00 | 0.46 | 0.46 | 1 | 1004.5 |
| 20260830211524 | 58 | 236 | 0.0 | 2.0 | 0.00 | 0.46 | 0.46 | 1 | 1004.5 |
| 20260830211003 | 58 | 236 | 0.0 | 2.0 | 0.00 | 0.46 | 0.46 | 1 | 1004.5 |
| 20260830210503 | 58 | 0 | 0.0 | 0.0 | 0.00 | 0.46 | 0.46 | 1 | 1004.4 |
| 20260830210024 | 58 | 0 | 0.0 | 0.0 | 0.00 | 0.46 | 0.46 | 1 | 1004.3 |
| 20260830205524 | 58 | 0 | 0.0 | 0.0 | 0.00 | 0.46 | 0.46 | 1 | 1004.3 |
| 20260830205003 | 58 | 125 | 0.0 | 1.0 | 0.00 | 0.46 | 0.46 | 1 | 1004.3 |
| 20260830204524 | 58 | 115 | 0.0 | 1.0 | 0.00 | 0.46 | 0.46 | 1 | 1004.3 |
| 20260830204002 | 58 | 113 | 0.0 | 1.0 | 0.00 | 0.46 | 0.46 | 1 | 1004.2 |
| 20260830203502 | 58 | 0 | 0.0 | 0.0 | 0.00 | 0.46 | 0.46 | 1 | 1004.3 |
| 20260830203024 | 58 | 0 | 0.0 | 0.0 | 0.00 | 0.46 | 0.46 | 1 | 1004.2 |
| 20260830202503 | 58 | 110 | 0.0 | 1.0 | 0.00 | 0.46 | 0.46 | 1 | 1004.2 |
| 20260830202024 | 58 | 110 | 0.0 | 1.0 | 0.00 | 0.46 | 0.46 | 1 | 1004.2 |
| 20260830201503 | 58 | 269 | 0.0 | 2.0 | 0.00 | 0.46 | 0.46 | 1 | 1004.2 |
| 20260830201003 | 58 | 260 | 0.0 | 2.0 | 0.00 | 0.46 | 0.46 | 1 | 1004.1 |
| 20260830200503 | 58 | 301 | 0.0 | 1.0 | 0.00 | 0.46 | 0.46 | 1 | 1004.1 |
| 20260830200003 | 59 | 295 | 0.0 | 1.0 | 0.00 | 0.46 | 0.46 | 1 | 1004.1 |
| 20260830195503 | 59 | 237 | 0.0 | 1.0 | 0.00 | 0.46 | 0.46 | 1 | 1004.0 |
| 20260830195024 | 59 | 172 | 0.0 | 2.0 | 0.00 | 0.46 | 0.46 | 1 | 1003.9 |
| 20260830194524 | 59 | 339 | 0.0 | 3.0 | 0.00 | 0.46 | 0.46 | 1 | 1003.8 |
| 20260830194002 | 59 | 335 | 0.0 | 3.0 | 0.00 | 0.46 | 0.46 | 1 | 1003.7 |
| 20260830193502 | 59 | 131 | 0.0 | 2.0 | 0.00 | 0.46 | 0.46 | 1 | 1003.6 |
| 20260830193003 | 59 | 151 | 0.0 | 1.0 | 0.00 | 0.46 | 0.46 | 1 | 1003.7 |
| 20260830192503 | 59 | 211 | 0.0 | 1.0 | 0.00 | 0.46 | 0.46 | 1 | 1003.6 |
| 20260830192002 | 60 | 324 | 0.0 | 1.0 | 0.00 | 0.46 | 0.46 | 1 | 1003.6 |
| 20260830191503 | 60 | 343 | 0.0 | 3.0 | 0.00 | 0.46 | 0.46 | 1 | 1003.5 |
| 20260830191003 | 60 | 320 | 0.0 | 3.0 | 0.00 | 0.46 | 0.46 | 1 | 1003.4 |
| 20260830190524 | 60 | 320 | 0.0 | 3.0 | 0.00 | 0.46 | 0.46 | 1 | 1003.4 |
| 20260830190003 | 60 | 329 | 0.0 | 3.0 | 0.00 | 0.46 | 0.46 | 1 | 1003.3 |
| 20260830185503 | 60 | 327 | 0.0 | 3.0 | 0.00 | 0.46 | 0.46 | 1 | 1003.3 |
| 20260830185003 | 60 | 331 | 0.0 | 3.0 | 0.00 | 0.46 | 0.46 | 1 | 1003.3 |
| 20260830184503 | 60 | 317 | 1.0 | 8.0 | 0.00 | 0.46 | 0.46 | 1 | 1003.3 |
| 20260830184003 | 60 | 317 | 1.0 | 8.0 | 0.00 | 0.46 | 0.46 | 1 | 1003.2 |
| 20260830183503 | 60 | 322 | 0.0 | 3.0 | 0.00 | 0.46 | 0.46 | 1 | 1003.3 |
| 20260830183003 | 60 | 323 | 0.0 | 4.0 | 0.00 | 0.46 | 0.46 | 1 | 1003.2 |
| 20260830182503 | 60 | 322 | 0.0 | 4.0 | 0.00 | 0.46 | 0.46 | 1 | 1003.1 |
| 20260830182003 | 60 | 307 | 0.0 | 1.0 | 0.00 | 0.46 | 0.46 | 1 | 1003.0 |
| 20260830181503 | 60 | 302 | 0.0 | 1.0 | 0.00 | 0.46 | 0.46 | 1 | 1003.0 |
| 20260830181003 | 60 | 0 | 0.0 | 0.0 | 0.00 | 0.46 | 0.46 | 1 | 1002.9 |
| 20260830180503 | 60 | 0 | 0.0 | 0.0 | 0.00 | 0.46 | 0.46 | 1 | 1002.9 |
| 20260830180024 | 60 | 0 | 0.0 | 0.0 | 0.00 | 0.46 | 0.46 | 1 | 1002.8 |
| 20260830175503 | 60 | 225 | 0.0 | 1.0 | 0.01 | 0.46 | 0.46 | 1 | 1002.7 |
| 20260830175024 | 60 | 225 | 0.0 | 1.0 | 0.01 | 0.46 | 0.46 | 1 | 1002.6 |
| 20260830174503 | 60 | 0 | 0.0 | 0.0 | 0.01 | 0.46 | 0.46 | 1 | 1002.6 |
| 20260830174002 | 60 | 0 | 0.0 | 0.0 | 0.02 | 0.46 | 0.46 | 1 | 1002.5 |
| 20260830173502 | 60 | 0 | 0.0 | 0.0 | 0.03 | 0.46 | 0.46 | 1 | 1002.4 |
| 20260830173003 | 59 | 0 | 0.0 | 0.0 | 0.04 | 0.46 | 0.46 | 1 | 1002.5 |
| 20260830172503 | 59 | 0 | 0.0 | 0.0 | 0.05 | 0.46 | 0.46 | 1 | 1002.3 |
| 20260830172002 | 59 | 0 | 0.0 | 0.0 | 0.06 | 0.46 | 0.46 | 1 | 1002.3 |
| 20260830171503 | 59 | 0 | 0.0 | 0.0 | 0.06 | 0.46 | 0.46 | 1 | 1002.3 |
| 20260830171003 | 59 | 0 | 0.0 | 0.0 | 0.06 | 0.46 | 0.46 | 1 | 1002.2 |
| 20260830170503 | 59 | 0 | 0.0 | 0.0 | 0.07 | 0.46 | 0.46 | 1 | 1002.1 |
| 20260830170024 | 59 | 266 | 0.0 | 1.0 | 0.08 | 0.46 | 0.46 | 1 | 1002.1 |
| 20260830165503 | 59 | 270 | 0.0 | 1.0 | 0.09 | 0.46 | 0.46 | 1 | 1002.0 |
| 20260830165024 | 59 | 279 | 0.0 | 1.0 | 0.11 | 0.46 | 0.46 | 1 | 1001.8 |
| 20260830164503 | 59 | 258 | 0.0 | 1.0 | 0.12 | 0.46 | 0.46 | 1 | 1001.7 |
| 20260830164003 | 59 | 264 | 0.0 | 1.0 | 0.13 | 0.45 | 0.45 | 1 | 1001.7 |
| 20260830163503 | 60 | 288 | 0.0 | 1.0 | 0.12 | 0.43 | 0.43 | 1 | 1001.6 |
| 20260830163024 | 60 | 307 | 0.0 | 1.0 | 0.12 | 0.43 | 0.43 | 1 | 1001.7 |
| 20260830162503 | 60 | 305 | 0.0 | 4.0 | 0.13 | 0.42 | 0.42 | 1 | 1001.5 |
| 20260830162003 | 60 | 304 | 0.0 | 4.0 | 0.13 | 0.41 | 0.41 | 1 | 1001.4 |
| 20260830161524 | 60 | 308 | 0.0 | 3.0 | 0.14 | 0.41 | 0.41 | 1 | 1001.4 |
| 20260830161003 | 60 | 305 | 0.0 | 4.0 | 0.15 | 0.40 | 0.40 | 1 | 1001.3 |
| 20260830160524 | 61 | 316 | 1.0 | 4.0 | 0.15 | 0.39 | 0.39 | 1 | 1001.3 |
| 20260830160003 | 61 | 321 | 0.0 | 4.0 | 0.14 | 0.39 | 0.39 | 1 | 1001.2 |
| 20260830155503 | 62 | 254 | 0.0 | 2.0 | 0.13 | 0.37 | 0.37 | 1 | 1001.1 |
| 20260830155003 | 62 | 0 | 0.0 | 0.0 | 0.11 | 0.35 | 0.35 | 1 | 1001.0 |
| 20260830154503 | 62 | 0 | 0.0 | 0.0 | 0.10 | 0.34 | 0.34 | 1 | 1000.9 |
| 20260830154003 | 62 | 0 | 0.0 | 0.0 | 0.09 | 0.32 | 0.32 | 1 | 1000.9 |
| 20260830153503 | 62 | 0 | 0.0 | 0.0 | 0.09 | 0.31 | 0.31 | 1 | 1000.9 |
| 20260830153002 | 62 | 0 | 0.0 | 0.0 | 0.09 | 0.31 | 0.31 | 1 | 1000.8 |
| 20260830152523 | 62 | 0 | 0.0 | 0.0 | 0.09 | 0.29 | 0.29 | 1 | 1000.9 |
| 20260830152003 | 62 | 0 | 0.0 | 0.0 | 0.08 | 0.28 | 0.28 | 1 | 1000.8 |
| 20260830151503 | 63 | 0 | 0.0 | 0.0 | 0.09 | 0.27 | 0.27 | 1 | 1000.8 |
| 20260830151024 | 63 | 0 | 0.0 | 0.0 | 0.09 | 0.25 | 0.26 | 1 | 1000.8 |
| 20260830150503 | 63 | 0 | 0.0 | 0.0 | 0.08 | 0.24 | 0.24 | 1 | 1000.8 |
| 20260830150024 | 63 | 0 | 0.0 | 0.0 | 0.08 | 0.24 | 0.24 | 1 | 1000.8 |
| 20260830145503 | 63 | 0 | 0.0 | 0.0 | 0.08 | 0.24 | 0.24 | 1 | 1000.8 |
| 20260830145003 | 63 | 0 | 0.0 | 0.0 | 0.07 | 0.24 | 0.24 | 1 | 1000.8 |
| 20260830144503 | 63 | 0 | 0.0 | 0.0 | 0.07 | 0.24 | 0.24 | 1 | 1000.8 |
| 20260830144003 | 63 | 0 | 0.0 | 0.0 | 0.07 | 0.23 | 0.23 | 1 | 1000.8 |
| 20260830143503 | 63 | 0 | 0.0 | 0.0 | 0.07 | 0.23 | 0.23 | 1 | 1000.8 |
| 20260830143003 | 63 | 0 | 0.0 | 0.0 | 0.06 | 0.22 | 0.22 | 1 | 1000.8 |
| 20260830142502 | 63 | 319 | 0.0 | 1.0 | 0.06 | 0.20 | 0.20 | 1 | 1000.8 |
| 20260830142003 | 63 | 319 | 0.0 | 1.0 | 0.05 | 0.20 | 0.20 | 1 | 1000.7 |
| 20260830141502 | 63 | 0 | 0.0 | 0.0 | 0.04 | 0.18 | 0.18 | 1 | 1000.7 |
| 20260830141003 | 63 | 0 | 0.0 | 0.0 | 0.03 | 0.17 | 0.17 | 1 | 1000.7 |
| 20260830140503 | 63 | 0 | 0.0 | 0.0 | 0.04 | 0.17 | 0.17 | 1 | 1000.7 |
| 20260830140003 | 63 | 0 | 0.0 | 0.0 | 0.05 | 0.17 | 0.17 | 1 | 1000.8 |
| 20260830135503 | 63 | 0 | 0.0 | 0.0 | 0.05 | 0.17 | 0.17 | 1 | 1000.8 |
| 20260830135003 | 63 | 0 | 0.0 | 0.0 | 0.06 | 0.17 | 0.17 | 1 | 1000.7 |
| 20260830134503 | 63 | 0 | 0.0 | 0.0 | 0.06 | 0.17 | 0.17 | 1 | 1000.8 |
| 20260830134003 | 63 | 0 | 0.0 | 0.0 | 0.06 | 0.16 | 0.16 | 1 | 1000.7 |
| 20260830133503 | 63 | 0 | 0.0 | 0.0 | 0.06 | 0.16 | 0.16 | 1 | 1000.7 |
| 20260830133023 | 63 | 0 | 0.0 | 0.0 | 0.06 | 0.16 | 0.16 | 1 | 1000.7 |
| 20260830132503 | 63 | 0 | 0.0 | 0.0 | 0.05 | 0.15 | 0.15 | 1 | 1000.7 |
| 20260830132003 | 63 | 0 | 0.0 | 0.0 | 0.05 | 0.15 | 0.15 | 1 | 1000.7 |
| 20260830131503 | 63 | 0 | 0.0 | 0.0 | 0.04 | 0.14 | 0.14 | 1 | 1000.7 |
| 20260830131003 | 63 | 0 | 0.0 | 0.0 | 0.03 | 0.13 | 0.13 | 1 | 1000.7 |
| 20260830130503 | 63 | 0 | 0.0 | 0.0 | 0.02 | 0.13 | 0.13 | 1 | 1000.7 |
| 20260830130024 | 63 | 0 | 0.0 | 0.0 | 0.02 | 0.12 | 0.13 | 1 | 1000.7 |
| 20260830125503 | 63 | 0 | 0.0 | 0.0 | 0.02 | 0.12 | 0.12 | 1 | 1000.7 |
| 20260830125003 | 63 | 147 | 0.0 | 1.0 | 0.00 | 0.10 | 0.10 | 1 | 1000.7 |
| 20260830124503 | 63 | 133 | 0.0 | 1.0 | 0.00 | 0.10 | 0.10 | 1 | 1000.7 |
| 20260830124003 | 63 | 129 | 0.0 | 1.0 | 0.00 | 0.10 | 0.10 | 1 | 1000.7 |
| 20260830123503 | 63 | 127 | 0.0 | 1.0 | 0.00 | 0.10 | 0.10 | 1 | 1000.7 |
| 20260830123002 | 63 | 0 | 0.0 | 0.0 | 0.00 | 0.10 | 0.10 | 1 | 1000.7 |
| 20260830122524 | 63 | 129 | 0.0 | 1.0 | 0.00 | 0.11 | 0.10 | 1 | 1000.8 |
| 20260830122002 | 63 | 129 | 0.0 | 1.0 | 0.00 | 0.11 | 0.10 | 1 | 1000.8 |
| 20260830121523 | 63 | 136 | 0.0 | 1.0 | 0.00 | 0.11 | 0.10 | 1 | 1000.8 |
| 20260830121003 | 63 | 133 | 0.0 | 1.0 | 0.00 | 0.11 | 0.10 | 1 | 1000.9 |
| 20260830120503 | 63 | 128 | 0.0 | 1.0 | 0.00 | 0.11 | 0.10 | 1 | 1000.9 |
| 20260830120003 | 62 | 122 | 0.0 | 2.0 | 0.00 | 0.11 | 0.10 | 1 | 1000.9 |
| 20260830115503 | 62 | 128 | 0.0 | 2.0 | 0.00 | 0.11 | 0.10 | 1 | 1001.0 |
| 20260830115024 | 62 | 140 | 0.0 | 2.0 | 0.00 | 0.11 | 0.10 | 1 | 1001.0 |
| 20260830114503 | 62 | 151 | 0.0 | 1.0 | 0.00 | 0.11 | 0.10 | 1 | 1001.0 |
| 20260830114003 | 62 | 151 | 0.0 | 1.0 | 0.00 | 0.11 | 0.10 | 1 | 1000.9 |
| 20260830113502 | 62 | 120 | 0.0 | 2.0 | 0.00 | 0.11 | 0.10 | 1 | 1000.9 |
| 20260830113002 | 62 | 125 | 0.0 | 2.0 | 0.00 | 0.11 | 0.10 | 1 | 1001.0 |
| 20260830112503 | 62 | 129 | 0.0 | 2.0 | 0.00 | 0.11 | 0.10 | 1 | 1001.0 |
| 20260830112003 | 62 | 131 | 0.0 | 2.0 | 0.00 | 0.11 | 0.10 | 1 | 1001.1 |
| 20260830111503 | 62 | 134 | 0.0 | 3.0 | 0.00 | 0.11 | 0.10 | 1 | 1001.1 |
| 20260830111003 | 62 | 132 | 0.0 | 3.0 | 0.00 | 0.11 | 0.10 | 1 | 1001.1 |
| 20260830110503 | 62 | 115 | 0.0 | 1.0 | 0.00 | 0.11 | 0.10 | 1 | 1001.2 |